Ushuaia, Argentina

8:03 AM -03 en Agosto 17, 2018 (GMT -0300)
Refugio martial | | Change Station

Alt 900 ft 54.80 °S, 68.30 °W | Updated 14 seconds ago

Scattered Clouds
Nubes dispersas
38.7 ° F
Sensación térmica 39 ° F
N
0
Viento Variable Viento desde SE
Gusts 0.0 mph

Hoy
Alta -- | Baja -- ° F
--% Posibilidad de precipitaciones
Ayer
Alta -- | Baja -- ° F
Precip. -- pul
Presión 29.00 pul
Visibilidad 6.2 Millas
Nubes Muy nublado 3500 ft
Nubes dispersas 8000 ft
Vientos helados 39 ° F
Punto de rocío 28 ° F
Humedad 66%
Precipitaciones 0.00 pul
Espesor de la nieve No disponible.
8:49 AM 6:25 PM
Creciente, 41% visible
METAR SAWH 171000Z 32020KT 9999 VCSH BKN035 SCT080 07/M03 Q0982
Presión 29.00 pul
Visibilidad 6.2 Millas
Nubes Muy nublado 3500 ft
Nubes dispersas 8000 ft
Vientos helados 39 ° F
Punto de rocío 28 ° F
Humedad 66%
Precipitaciones 0.00 pul
Espesor de la nieve No disponible.
8:49 AM 6:25 PM
Creciente, 41% visible
METAR SAWH 171000Z 32020KT 9999 VCSH BKN035 SCT080 07/M03 Q0982

Get Severe Weather Alerts

Thanks for signing up!

Be on the lookout for a verification email in your inbox.

You'll start receiving the daily forecast at 6 AM.

×

10-Day Weather Forecast

Almanac

Astronomía

Aug. 17, 2018 Salida Puesta
Hora real
Crepúsculo civil
Crepúsculo náutico
Crepúsculo astronómico
Luna
Horas de luz
Horas de luz
Tomorrow will be .
, % of the Moon is Illuminated

Extremos de hoy

Máximos del país Bajas del país

Community

WunderPhotos

Category 6

Welcome to Category 6. This is the collective home for Weather Underground's featured writeups by Dr. Jeff Masters (right), Bob Henson (left), Chris Burt, and other regular contributors.

Nearby

Calidad del aire

  Calidad del aire Índice AQ Contaminante
Not available.

Grosos de nieve

Estación Profundido Altura

Actividad de terremotos

Ciudad Distance Mag. Tiempo y dato
Magnitud mínima muestra es 2,5.

Temperaturas de aguas costeras

Lugar Temperatura

Stations

Estaciones meteorológicas cercanas

Ubicación de la estación Temp. Vientos helados Punto de rocío Humedad Viento Precip. Alt Actualizado Tipo